Dewpoint
50 50 49 49 49 51 52 43 36 51 41 31 37 34 36 38 32 35 35 34 30 29 31 33 32 32 33 38 36 27 32 28 23 23 26 30 28 27 25 20 20 26 24 22
49 49 49 49 50 51 50 45 49 53 37 29 33 34 34 36 32 33 34 34 35 36 35 33 35 36 38 34 34 30 30 26 23 22 24 27 26 27 30 27 26 24 17 17
49 49 49 49 51 51 49 45 42 44 44 35 32 29 31 34 37 36 35 35 36 36 36 37 35 36 37 35 34 40 36 29 23 21 20 25 20 21 28 25 23 23 23 22
49 49 49 50 51 51 51 44 40 41 37 40 33 30 32 34 33 36 35 33 34 34 33 35 35 37 36 34 38 37 30 27 29 29 29 25 21 20 22 21 22 19 20 25
48 49 49 49 51 51 49 46 40 38 34 42 37 35 35 34 35 35 33 32 37 35 34 33 34 35 32 25 35 35 35 29 28 28 30 28 24 23 22 22 21 23 26 25
48 48 48 50 50 50 47 49 48 40 38 37 37 37 36 36 38 40 39 36 35 34 36 38 39 38 37 35 34 35 32 28 25 21 26 19 16 21 23 26 26 26 26 28
48 48 48 49 50 50 52 51 48 41 33 33 36 38 37 37 37 37 40 38 35 37 38 35 32 32 38 39 39 36 30 27 22 15 17 4 16 24 27 25 28 30 32 33
48 48 48 48 50 50 53 52 46 41 32 34 37 39 41 41 42 41 42 43 41 38 30 29 27 25 28 31 36 34 32 27 24 15 17 15 16 30 30 27 24 35 33 35
50 49 49 48 49 48 53 52 49 45 39 38 42 41 40 38 38 38 41 44 41 35 29 26 22 21 24 26 33 35 31 27 23 19 9 5 16 29 32 29 25 34 36 36
49 49 49 49 50 50 54 52 51 47 43 44 43 40 39 40 39 36 39 40 38 34 26 19 19 20 24 25 25 28 27 24 20 14 11 20 23 31 31 23 23 37 37 37
50 49 50 50 50 51 53 52 53 48 44 46 47 48 43 42 40 36 40 37 36 31 26 23 23 22 28 28 29 32 29 27 26 21 12 17 28 31 27 30 33 37 37 37
50 50 49 50 51 51 53 52 53 51 48 47 48 47 48 48 41 43 39 38 38 36 30 24 25 26 31 27 24 33 26 27 26 26 26 29 31 33 36 36 36 37 37 37
50 50 50 50 51 50 52 52 48 48 44 45 46 45 48 47 48 47 39 40 41 38 36 32 29 23 30 25 29 29 32 32 28 28 28 31 32 36 39 39 37 38 38 37
49 49 50 50 50 51 51 50 48 45 42 36 42 46 45 47 50 50 47 44 42 40 38 32 31 25 32 27 28 30 31 33 31 31 33 36 38 39 37 38 38 38 38 37
49 50 51 50 50 50 51 49 48 47 38 38 37 44 45 47 49 47 46 44 42 39 35 33 33 31 32 32 31 31 34 32 30 29 32 32 32 36 38 37 37 38 35 31
47 48 49 49 49 48 43 41 48 49 45 40 34 42 42 44 46 45 45 45 42 39 38 34 36 39 34 33 34 36 37 37 35 33 37 36 35 36 37 38 37 36 27 26
48 48 49 49 48 48 40 37 45 46 44 38 35 33 39 41 43 41 41 41 40 40 38 35 36 37 37 33 32 34 37 38 38 38 37 35 35 36 38 35 29 26 24 25
48 48 48 48 48 48 47 46 46 45 38 36 32 31 34 40 37 37 41 37 38 39 39 36 34 36 34 33 36 37 38 37 37 37 37 38 39 31 25 24 24 25 25 26
48 47 47 47 46 44 46 46 45 43 39 30 26 29 28 38 37 35 37 37 34 37 34 35 34 33 33 34 36 36 36 36 37 37 35 31 25 24 25 27 29 29 27 25
46 46 43 37 43 46 45 41 37 37 37 35 32 35 34 39 34 34 30 33 29 23 28 37 33 34 35 35 35 36 36 37 37 28 28 32 33 34 35 34 28 26 25 26
44 40 37 43 44 43 37 34 33 34 33 36 35 35 35 38 34 33 31 29 31 26 26 32 30 31 32 33 30 33 32 33 34 35 36 36 35 33 29 26 26 25 25 24
43 43 42 40 37 35 34 32 33 33 31 34 35 35 37 35 33 34 33 25 31 27 33 31 28 32 32 30 35 37 37 37 37 37 37 35 30 26 24 22 21 23 25 24
39 36 34 34 31 33 33 31 32 32 33 34 34 33 33 34 35 33 33 31 29 32 31 29 31 30 29 34 36 35 35 34 29 25 25 25 24 24 24 23 24 25 25 26
34 33 34 32 32 31 31 32 33 32 33 33 33 32 33 32 33 32 32 32 32 29 27 24 32 35 35 36 33 28 26 26 26 25 24 24 25 26 24 22 22 19 23 26
33 33 28 28 30 32 32 32 33 32 33 33 33 33 33 32 31 31 30 27 21 21 19 30 32 35 31 27 26 26 25 24 25 25 25 22 22 23 25 25 25 26 23 23
33 32 27 31 31 31 32 32 32 33 33 33 33 31 29 28 28 25 24 23 17 21 30 32 35 32 28 27 27 26 26 25 26 26 26 26 23 21 26 26 25 23 22 22
32 30 32 32 32 31 32 32 32 34 33 31 31 23 22 27 21 21 25 18 26 31 32 33 32 29 27 27 30 28 27 26 26 27 27 28 28 25 25 26 28 28 28 25
Lifted_Index
4 4 4 3 3 3 2 1 -0 -1 0 2 3 2 2 1 1 1 1 2 2 2 2 1 1 1 1 2 2 2 1 1 1 2 3 3 3 3 3 2 2 2 2 2
4 4 3 3 3 3 1 1 -1 -1 1 3 3 2 2 1 1 1 1 1 1 1 1 1 1 1 1 2 2 2 1 1 2 2 3 3 3 3 3 3 3 2 2 2
4 3 3 3 3 2 1 0 -0 0 2 3 3 3 2 1 1 1 1 1 1 1 1 1 1 1 1 1 2 2 2 2 2 3 3 3 3 3 3 3 3 2 2 3
3 3 3 3 3 2 1 0 1 1 2 3 4 3 2 1 1 1 1 1 1 1 1 1 1 1 1 1 2 3 3 3 3 3 3 3 3 3 3 3 3 3 3 4
3 3 2 2 2 1 0 0 1 2 3 3 4 4 3 2 1 1 1 1 1 1 1 1 1 1 1 2 3 3 3 3 3 3 4 4 3 3 4 4 4 4 4 4
3 2 2 2 2 1 -0 -0 1 2 3 3 3 3 3 2 1 1 1 2 1 1 1 1 1 1 2 2 3 4 4 4 4 3 3 3 3 4 4 4 4 4 5 5
2 1 1 2 2 1 -0 -1 -0 1 3 4 3 3 2 2 1 1 1 2 2 1 1 1 1 2 2 3 3 4 4 4 4 3 3 3 4 4 4 4 4 5 5 5
1 1 1 1 1 1 -1 -1 -1 1 2 3 3 2 2 1 1 1 1 2 2 2 1 1 2 2 2 3 3 3 4 4 4 4 3 3 4 5 5 5 5 5 5 5
0 0 0 1 1 1 -0 -1 -1 0 1 2 2 2 1 1 1 1 1 2 2 2 2 2 2 2 2 3 3 3 4 4 4 4 3 4 5 5 5 5 5 5 5 5
-0 -0 0 1 1 0 -1 -1 -1 -0 1 1 1 1 1 1 1 1 1 2 2 2 2 2 2 2 3 3 4 4 4 4 4 4 4 4 5 5 5 5 5 5 5 5
-0 -0 -0 -0 0 -0 -1 -1 -1 -0 0 1 1 1 1 1 1 1 1 2 2 2 2 2 2 3 3 4 4 4 4 5 5 5 4 5 6 6 5 5 6 6 5 5
-0 -1 -1 -1 -1 -1 -1 -1 -0 -0 0 0 1 1 1 1 1 1 1 2 2 2 3 3 3 4 4 5 5 5 5 5 5 5 5 5 6 6 5 5 5 5 5 4
-0 -1 -1 -1 -1 -1 -0 0 0 0 0 0 0 1 1 1 2 2 2 2 2 3 3 3 4 5 5 6 6 6 6 6 6 6 5 5 6 5 5 5 5 4 4 3
-1 -1 -1 -1 -1 -0 0 1 1 1 1 1 1 1 1 1 1 2 2 2 2 3 3 4 5 5 6 7 7 6 6 5 6 6 5 5 5 5 4 4 4 3 3 3
-1 -1 -1 -1 -1 -0 0 1 2 2 2 2 1 1 1 1 1 1 1 1 2 2 3 4 5 5 6 7 7 6 5 5 5 6 5 5 4 4 4 3 3 3 3 3
-0 -1 -1 -1 -0 1 1 2 2 3 3 3 2 2 2 1 1 1 1 1 2 2 3 3 4 4 5 6 6 5 4 4 5 5 5 4 4 3 3 3 3 3 4 4
-0 -0 -0 -0 0 1 2 2 2 3 4 4 4 3 3 2 2 2 2 2 2 3 3 3 3 3 4 5 4 4 4 4 4 4 4 4 3 3 3 3 3 4 5 6
0 0 0 1 1 1 1 1 2 3 4 4 4 4 4 3 2 2 2 2 3 3 3 3 3 4 4 4 4 3 3 3 4 4 4 3 3 3 3 3 4 5 6 8
1 1 1 2 2 2 1 1 2 3 4 4 4 4 3 3 2 2 2 3 3 3 4 4 4 4 4 3 3 3 3 4 4 4 4 4 4 4 4 5 5 6 8 8
2 2 2 2 2 2 2 2 2 3 3 3 3 3 3 3 2 2 2 3 3 4 4 4 4 4 4 3 3 4 4 4 5 4 4 4 4 5 6 7 8 9 10 10
3 3 3 2 2 2 2 2 3 3 3 3 2 2 2 2 2 2 2 3 3 3 4 4 4 4 4 4 4 5 5 5 5 5 5 6 7 7 8 9 10 11 11 11
3 3 2 3 3 2 2 2 3 2 2 2 2 2 2 2 2 2 2 3 3 3 4 4 4 4 5 5 6 6 6 6 7 7 8 8 9 10 10 11 11 12 12 12
2 2 2 3 3 2 2 2 2 2 2 2 2 2 2 2 2 2 2 2 3 3 3 3 4 5 6 6 7 7 8 9 9 9 10 10 11 11 12 12 12 11 11 11
2 2 2 3 3 3 3 2 2 2 2 3 3 2 2 2 2 2 2 2 2 3 3 3 4 6 7 8 8 9 10 10 10 10 10 10 11 11 12 11 11 10 10 10
2 2 2 3 3 3 2 2 2 2 3 3 3 3 3 2 2 2 2 2 2 2 3 4 6 7 8 9 9 10 10 10 9 9 9 9 10 10 10 10 10 9 9 9
2 3 3 3 3 3 3 3 3 3 3 3 3 3 3 3 3 3 2 2 2 3 4 6 7 8 8 9 9 9 8 8 8 8 9 9 9 9 9 9 8 8 8 7
3 3 4 3 3 3 3 3 4 4 4 3 3 3 3 3 3 3 3 3 3 4 6 6 7 8 8 8 8 7 7 7 8 8 9 9 9 9 8 8 8 7 7 7